Location: Newark
(47.5833°N, 8.1500°E)
Time: 02:14:00
(UTC+00:00)

Transit 2A - Pass Details

Date: 01 November 2020
Orbit: 594 x 964 km, 66.7° (Epoch: 25 November)

Event Time Altitude Azimuth Distance (km) Brightness Sun altitude
Rises 08:02:10 0° 325° (NW) 3,465 8.8 14.9°
Reaches altitude 10° 08:04:46 10° 326° (NW) 2,470 8.1 15.2°
Maximum altitude 08:10:28 88° 56° (NE) 785 6.4 15.9°
Drops below altitude 10° 08:15:31 10° 147° (SSE) 2,202 10.6 16.5°
Sets 08:17:44 0° 147° (SSE) 3,064 10.8 16.8°
